Location: Rowland
(34.5359°N, 79.2929°W)
Time: 16:06:24
(UTC+00:00)

S-56A Canister/Altair - Pass Details

Date: 09 October 2022
Orbit: 638 x 2494 km, 38.9° (Epoch: 06 December)

Event Time Altitude Azimuth Distance (km) Brightness Sun altitude
Exits shadow 08:19:23 76° 18° (NNE) 1,491 8.8 -37.0°
Drops below altitude 10° 08:26:40 10° 98° (E) 2,944 11.1 -35.6°
Sets 08:28:55 0° 100° (E) 3,707 11.8 -35.2°
